sat.trackr.live / text

‹ back to catalog

STARLINK-36823

NORAD 68070 · 2026-042B

PAYLOAD ACTIVE UNKNOWN

§ Identity

Operator
Country
US
Launch date
2026-03-04
Launch site
AFETR
Launch vehicle
Mass (kg)
RCS (m²)

Purposes: comms

External: N2YO · Heavens-Above · Gunter

§ Orbital elements

Epoch: 2026-09-19T19:20:23.017344Z

Period
93.85 min
Inclination
53.1597°
Eccentricity
0.0001292
Mean motion
15.34417605 rev/d
Perigee alt
461.8 km
Apogee alt
463.5 km
Semi-major
6,840.8 km
B*
3.9311e-4
RAAN
350.7541°
Arg perigee
88.2082°
Mean anomaly
271.9069°
Rev number
3,211

§ Raw data

STARLINK-368231 68070U 26042B   26262.80582196  .00012936  00000+0  39311-3 0  99922 68070  53.1597 350.7541 0001292  88.2082 271.9069 15.34417605 32117

JSON: /api/v1/satellites/68070 · /tle

For live sub-satellite position, see the globe view (requires WebGL).

§ Visibility from observer

Set your observer location to see the next 7 days of passes ≥ 10°. The values pass through the URL so the page stays shareable.

No JS? Fill the form by hand. The geolocation button needs JavaScript.